Location: Alphen
(52.1351°N, 4.6549°E)
Time: 00:41:06
(UTC+00:00)

Cosmos 2297 - Pass Details

Date: 27 January 2021
Orbit: 834 x 860 km, 71.0° (Epoch: 27 February)

Event Time Altitude Azimuth Distance (km) Brightness Sun altitude
Exits shadow 04:08:16 45° 12° (NNE) 1,158 4.4 -30.6°
Maximum altitude 04:09:29 54° 52° (NE) 1,048 4.3 -30.4°
Drops below altitude 10° 04:15:05 10° 129° (SE) 2,495 6.6 -29.6°
Sets 04:17:36 0° 134° (SE) 3,427 7.4 -29.2°
